Flag for United Kingdom Weather past 2 weeks in Bath, England, United Kingdom

Now
61 °F

Fog.


Feels Like: 61 °F
Forecast: 48 / 64 °F
Wind: 7 mph from Northeast

Location: Bristol / Lulsgate

Current Time: Sep 20, 2014 at 1:38:34 AM

Latest Report: Sep 20, 2014 at 12:50 AM


Visibility: 0 mi

Pressure: 29.95 "Hg

Humidity: 94%

Dew point: 59 °F

Location of BathLocation

Historic Weather in Bath — Graph

°F

Bath temperature yesterday

Maximum temperature yesterday: 64 °F (at 2:50 PM)
Minimum temperature yesterday: 59 °F (at 7:20 AM)
Average temperature yesterday: 61 °F

Past Weeks' High & Low Weather Summary

 TemperatureHumidityPressure
High73 °F (Sep 18, 2:50 PM)100% (Sep 6, 11:50 PM)30.33 "Hg (Sep 6, 11:50 PM)
Low46 °F (Sep 11, 5:20 AM)52% (Sep 8, 3:20 PM)29.77 "Hg (Sep 18, 5:50 AM)
Average60 °F81%30.06 "Hg
* Reported Sep 5 12:20 AM — Sep 20 12:20 AM, Bath, Weather by CustomWeather, © 2014

Note: Actual official high and low records may vary slightly from our data, if they occured in-between our weather recording intervals... More about our weather records

Advertising

Bath weather history for previous 24 hours

 ConditionsComfort  
Time TempWeatherWind HumidityBarometerVisibility
12:20 AM
Sep 20
61 °FFog.7 mph100%29.95 "Hg1 mi
11:50 PM
Sep 19
61 °FFog.7 mph100%29.95 "Hg1 mi
11:20 PM61 °FFog.6 mph100%29.95 "Hg1 mi
10:50 PM61 °FFog.8 mph94%29.95 "Hg1 mi
10:20 PM61 °FFog.7 mph94%29.95 "Hg1 mi
9:50 PM61 °FFog.8 mph94%29.95 "Hg1 mi
9:20 PM61 °FFog.8 mph94%29.95 "Hg2 mi
8:50 PM61 °FFog.6 mph94%29.92 "Hg2 mi
8:20 PM61 °FFog.6 mph94%29.92 "Hg2 mi
7:50 PM61 °FFog.7 mph94%29.92 "Hg2 mi
7:20 PM61 °FFog.6 mph100%29.89 "Hg2 mi
6:50 PM63 °FFog.6 mph94%29.89 "Hg2 mi
6:20 PM63 °FFog.5 mph94%29.89 "Hg2 mi
5:50 PM63 °FFog.6 mph94%29.89 "Hg2 mi
5:20 PM63 °FBroken clouds.6 mph94%29.89 "Hg3 mi
4:50 PM63 °FBroken clouds.5 mph94%29.89 "Hg3 mi
4:20 PM63 °FBroken clouds.5 mph94%29.89 "Hg4 mi
3:50 PM63 °FScattered clouds.6 mph94%29.89 "Hg3 mi
3:20 PM63 °FPartly sunny.6 mph94%29.89 "Hg2 mi
2:50 PM64 °FPartly sunny.7 mph88%29.89 "Hg2 mi
2:20 PM63 °FFog.8 mph94%29.89 "Hg2 mi
1:50 PM63 °FFog.7 mph94%29.89 "Hg2 mi
1:20 PM63 °FFog.7 mph94%29.89 "Hg1 mi
12:50 PM61 °FFog.10 mph94%29.89 "Hg1 mi
12:20 PM61 °FFog.13 mph94%29.86 "Hg1 mi
11:50 AM61 °FFog.13 mph94%29.86 "Hg1 mi
11:20 AM61 °FFog.12 mph94%29.86 "Hg1 mi
10:50 AM61 °FFog.7 mph94%29.86 "Hg1 mi
10:20 AM61 °FFog.7 mph94%29.86 "Hg1 mi
9:50 AM61 °FFog.8 mph94%29.86 "Hg1 mi
9:20 AM59 °FFog.7 mph100%29.86 "Hg1 mi
8:50 AM59 °FFog.9 mph100%29.86 "Hg1 mi
8:20 AM59 °FFog.9 mph100%29.86 "Hg1 mi
7:50 AM59 °FSprinkles. Fog.12 mph100%29.83 "Hg1 mi
7:20 AM59 °FSprinkles. Fog.13 mph100%29.83 "Hg1 mi
6:50 AM61 °FSprinkles. Fog.9 mph94%29.83 "Hg1 mi
6:20 AM61 °FSprinkles. Fog.8 mph94%29.83 "Hg1 mi
5:50 AM61 °FSprinkles. Fog.9 mph94%29.80 "Hg1 mi
5:20 AM61 °FSprinkles. Fog.10 mph94%29.80 "Hg1 mi
4:50 AM61 °FSprinkles. Fog.10 mph100%29.80 "Hg1 mi
4:20 AM61 °FFog.10 mph100%29.83 "Hg1 mi
3:50 AM61 °FFog.12 mph94%29.80 "Hg2 mi
3:20 AM61 °FPassing clouds.8 mph94%29.80 "Hg5 mi
2:50 AM61 °FClear.7 mph94%29.80 "Hg10 mi
2:20 AM61 °FClear.7 mph94%29.80 "Hg10 mi
1:50 AM61 °FClear.10 mph94%29.83 "Hg10 mi
1:20 AM61 °FPassing clouds.8 mph94%29.83 "HgN/A
Weather by CustomWeather, © 2014

See weather overviewHow to use our weather pages